• Join FlightAware (Why Join?)
  • Login
  • US Flag GB Flag 
06:52 EDT


 

Airport Tracker/Info


-or-


 

Live Flight TrackerFlight Track Log ✈ N36VE ✈ 11-Jan-2013 ✈ KJYR - KLBF

Flight Track Log - Related Links

Times and Time Zones

All times are in EST time to prevent confusion due to time zone crossing. See the N36VE flight status page for this flight to view local times or setup timezone preferences in your user account.

Time Position Orientation Groundspeed Altitude Reporting Facility
EST Latitude Longitude Course Direction KTS MPH feet Rate Location/Type
12:12 40.8517 -97.6525 279° West 98 113 4,500  Level Minneapolis Center
12:13 40.8614 -97.6875 290° West 99 114 5,600 660 Climbing Minneapolis Center
12:14 40.8703 -97.7222 289° West 99 114 5,900 120 Climbing Minneapolis Center
12:15 40.8736 -97.7742 275° West 139 160 5,900  Level Minneapolis Center
12:16 40.8794 -97.8297 278° West 152 175 5,900  Level Minneapolis Center
12:17 40.8853 -97.8906 277° West 162 186 5,900  Level Minneapolis Center
12:18 40.9139 -97.9110 279° West  Level FlightAware Approximate
12:18 40.8919 -97.9497 278° West 164 189 5,900  Level Minneapolis Center
12:20 40.8975 -98.0119 277° West 167 192 5,900  Level Minneapolis Center
12:21 40.9033 -98.0731 277° West 168 193 5,900  Level Minneapolis Center
12:22 40.9094 -98.1333 278° West 166 191 5,900  Level Minneapolis Center
12:23 40.9167 -98.2056 278° West 165 190 5,900  Level Minneapolis Center
12:24 40.9217 -98.2653 276° West 164 189 5,900  Level Minneapolis Center
12:25 40.9278 -98.3258 278° West 165 190 5,900  Level Minneapolis Center
12:26 40.9331 -98.3861 277° West 165 190 5,900  Level Minneapolis Center
12:27 40.9394 -98.4469 278° West 166 191 5,900  Level Minneapolis Center
12:28 40.9450 -98.5083 277° West 167 192 5,900  Level Minneapolis Center
12:29 40.9503 -98.5700 276° West 167 192 5,900  Level Minneapolis Center
12:30 40.9561 -98.6306 277° West 167 192 5,900  Level Minneapolis Center
12:32 40.9669 -98.7528 277° West 166 191 5,900  Level Minneapolis Center
12:33 40.9736 -98.8269 277° West 167 192 5,900 60 Level Minneapolis Center
12:34 40.9797 -98.8869 278° West 165 190 6,100 60 Climbing Minneapolis Center
12:35 40.9853 -98.9469 277° West 164 189 6,100  Level Minneapolis Center
12:36 40.9900 -99.0094 276° West 166 191 6,100  Level Minneapolis Center
12:37 40.9958 -99.0717 277° West 168 193 6,100  Level Minneapolis Center
12:38 41.0011 -99.1347 276° West 170 196 6,100  Level Minneapolis Center
12:38 41.0019 -99.1472 275° West 171 197 6,100  Level Denver Center
12:39 41.0089 -99.2222 277° West 171 197 6,100  Level Denver Center
12:41 41.0153 -99.2975 276° West 170 196 6,100  Level Denver Center
12:42 41.0208 -99.3594 277° West 170 196 6,100  Level Denver Center
12:43 41.0261 -99.4208 277° West 168 193 6,100  Level Denver Center
12:44 41.0311 -99.4819 276° West 167 192 6,100  Level Denver Center
12:45 41.0356 -99.5431 276° West 166 191 6,100  Level Denver Center
12:46 41.0408 -99.6042 277° West 166 191 6,100  Level Denver Center
12:47 41.0469 -99.6775 276° West 167 192 6,100  Level Denver Center
12:48 41.0517 -99.7397 276° West 168 193 6,100  Level Denver Center
12:49 41.0569 -99.8025 276° West 171 197 6,100  Level Denver Center
12:50 41.0531 -99.8631 265° West 168 193 6,100  Level Denver Center
12:51 41.0417 -99.9297 257° West 166 191 6,100  Level Denver Center
12:52 41.0342 -99.9875 260° West 166 191 6,100  Level Denver Center
12:53 41.0200 -100.0522 254° West 165 190 6,100 -180 Level Denver Center
12:54 41.0042 -100.1067 249° West 165 190 5,800 -420 Descending Denver Center
12:55 40.9839 -100.1719 248° West 170 196 5,300 -360 Descending Denver Center
12:56 40.9700 -100.2331 253° West 177 204 5,100 -120 Descending Denver Center
12:57 40.9561 -100.3022 255° West 176 203 5,100  Level Denver Center
12:58 40.9533 -100.3594 266° West 168 193 5,100 -180 Level Denver Center
12:59 40.9828 -100.4186 303° West 176 203 4,800 -240 Descending Denver Center
13:00 41.0100 -100.4675 306° West 175 201 4,700 -60 Descending Denver Center
13:01 41.0369 -100.5183 305° West 160 184 4,700  Level Denver Center
13:02 41.0606 -100.5592 307° West 152 175 4,800 -300 Climbing Denver Center
13:03 41.0842 -100.6025 306° West 138 159 4,100 -720 Descending Denver Center